KD2PO-13 Weather Reports


time (UTC)temp
C
wind
direction
speed
KPH
gust
KPH
rain 1hr
cm
rain 24hr
cm
rain mn
cm
humidity
%
barometer
mb
20260507071940 -17 0.0 0.0 0.00 0.69 0.00
20260507071439 -17 0.0 0.0 0.00 0.69 0.00
20260507070939 -17 0.0 0.0 0.00 0.69 0.00
20260507070439 -17 0.0 0.0 0.00 0.69 0.00
20260507065939 -17 0.0 0.0 0.00 0.69 0.00
20260507065439 -17 0.0 0.0 0.00 0.69 0.00
20260507064939 -17 0.0 0.0 0.00 0.69 0.00
20260507064500 -17 0.0 0.0 0.00 0.69 0.00
20260507064439 -17 0.0 0.0 0.00 0.69 0.00
20260507063939 -17 0.0 0.0 0.00 0.69 0.00
20260507063440 -17 0.0 0.0 0.00 0.69 0.00
20260507062939 -17 0.0 0.0 0.00 0.69 0.00
20260507062439 -17 0.0 0.0 0.00 0.69 0.00
20260507061939 -17 0.0 4.8 0.00 0.69 0.00
20260507061439 3 0.0 4.8 0.00 0.69 0.00
20260507060939 3 335 4.8 6.4 0.00 0.69 0.69 90
20260507060439 3 335 4.8 11.3 0.00 0.69 0.69 90
20260507055939 4 333 6.4 11.3 0.00 0.69 0.69 90
20260507055439 4 350 4.8 11.3 0.00 0.69 0.69 91
20260507054939 4 332 4.8 12.9 0.00 0.69 0.69 90
20260507054439 4 339 8.0 12.9 0.00 0.69 0.69 90
20260507053939 4 331 3.2 9.7 0.00 0.69 0.69 90
20260507053439 4 339 4.8 14.5 0.00 0.69 0.69 90
20260507052939 4 339 3.2 16.1 0.00 0.69 0.69
20260507052438 5 347 6.4 16.1 0.00 0.69 0.69 91
20260507051939 5 345 4.8 19.3 0.00 0.69 0.69 92
20260507051439 5 334 8.0 19.3 0.00 0.69 0.69 92
20260507050939 5 335 6.4 12.9 0.00 0.69 0.69 92
20260507050439 5 335 4.8 12.9 0.00 0.69 0.69 93
20260507045938 5 333 3.2 12.9 0.00 0.69 0.00 93
20260507044939 5 335 3.2 8.0 0.00 0.69 0.69 93
20260507044439 5 333 3.2 16.1 0.00 0.69 0.69 94
20260507043939 5 322 4.8 16.1 0.00 0.69 0.69 94
20260507043438 5 345 4.8 12.9 0.00 0.69 0.69 95
20260507042939 5 335 4.8 19.3 0.00 0.69 0.69 95
20260507042441 5 329 4.8 19.3 0.00 0.69 0.69 95
20260507041939 5 328 1.6 14.5 0.00 0.69 0.69 95
20260507041439 5 330 4.8 14.5 0.00 0.69 0.69 95
20260507040938 5 331 4.8 17.7 0.00 0.69 0.69 95
20260507040439 5 330 6.4 17.7 0.00 0.69 0.69 95
20260507035939 5 328 8.0 17.7 0.00 0.69 0.69 95
20260507035439 5 326 8.0 17.7 0.00 0.69 0.69 95
20260507034939 5 339 8.0 17.7 0.00 0.69 0.69 95
20260507034438 6 330 8.0 17.7 0.00 0.69 0.69 95
20260507033939 6 336 8.0 20.9 0.00 0.69 0.69 95
20260507033439 6 334 11.3 20.9 0.00 0.69 0.69 95
20260507032939 6 337 8.0 20.9 0.00 0.69 0.69 96
20260507032439 6 336 4.8 17.7 0.00 0.69 0.69 97
20260507031938 6 336 9.7 17.7 0.00 0.69 0.69 98
20260507031438 6 340 8.0 16.1 0.00 0.69 0.69 98
20260507030939 6 350 3.2 8.0 0.00 0.69 0.69 98
20260507030439 6 0 0.0 4.8 0.00 0.69 0.69 98
20260507025939 6 0 0.0 1.6 0.00 0.69 0.69 98
20260507025438 6 0 0.0 1.6 0.00 0.69 0.69 98
20260507024938 6 0 0.0 0.0 0.00 0.69 0.69 98
20260507024439 6 0 0.0 0.0 0.00 0.69 0.69 98
20260507023939 6 0 0.0 0.0 0.00 0.69 0.69 98
20260507023439 6 0 0.0 0.0 0.00 0.69 0.69 98
20260507022938 6 0 0.0 0.0 0.00 0.69 0.69 97
20260507022438 6 0 0.0 0.0 0.00 0.69 0.69 97
20260507021939 6 0 0.0 0.0 0.00 0.69 0.69 97
20260507021439 6 0 0.0 1.6 0.00 0.69 0.69 98
20260507020939 6 0 0.0 1.6 0.00 0.69 0.69 98
20260507020439 6 0 0.0 1.6 0.00 0.69 0.69 98
20260507015938 6 0 0.0 0.0 0.00 0.69 0.69 98
20260507015438 6 0 0.0 1.6 0.00 0.69 0.69 97
20260507014939 6 0 0.0 1.6 0.00 0.69 0.69 97
20260507014439 6 0 0.0 1.6 0.00 0.69 0.69 97
20260507013938 6 0 0.0 0.0 0.00 0.69 0.69 97
20260507013438 5 0 0.0 0.0 0.00 0.69 0.69 97
20260507012938 5 0 0.0 0.0 0.00 0.69 0.69 97
20260507012439 5 0 0.0 0.0 0.00 0.69 0.69 97
20260507011939 5 0 0.0 0.0 0.00 0.69 0.69 97
20260507011439 5 0 0.0 0.0 0.00 0.69 0.69 97
20260507010938 5 0 0.0 0.0 0.00 0.69 0.69 97
20260507010439 5 0 0.0 0.0 0.00 0.69 0.69 97
20260507005939 5 0 0.0 0.0 0.00 0.69 0.69 97
20260507005439 5 0 0.0 0.0 0.00 0.69 0.69 97
20260507004938 5 0 0.0 0.0 0.00 0.69 0.69 97
20260507004438 5 0 0.0 1.6 0.00 0.69 0.69 97
20260507003938 5 0 0.0 1.6 0.00 0.69 0.69 96
20260507003439 5 0 0.0 0.0 0.00 0.69 0.69 96
20260507002939 5 0 0.0 0.0 0.00 0.69 0.69 95
20260507002438 5 0 0.0 0.0 0.00 0.69 0.69 96
20260507001938 6 0 0.0 0.0 0.00 0.69 0.69 96
20260507001439 6 0 0.0 0.0 0.00 0.69 0.69 96
20260507000939 6 0 0.0 0.0 0.00 0.69 0.69 96
20260507000439 6 0 0.0 0.0 0.00 0.69 0.69 96
20260506235939 6 0 0.0 0.0 0.00 0.69 0.69 96
20260506235438 6 0 0.0 0.0 0.00 0.69 0.69 96
20260506234938 6 0 0.0 0.0 0.00 0.69 0.69 96
20260506234438 6 0 0.0 1.6 0.00 0.69 0.69 96
20260506233939 6 0 0.0 4.8 0.00 0.69 0.69 96
20260506232938 6 0 0.0 4.8 0.00 0.69 0.69 96
20260506232438 6 0 0.0 3.2 0.00 0.71 0.69 96
20260506231938 6 0 0.0 1.6 0.00 0.71 0.69 96
20260506231438 6 0 0.0 1.6 0.00 0.74 0.69 96
20260506230939 6 0 0.0 0.0 0.00 0.74 0.69 96
20260506230439 6 0 0.0 0.0 0.00 0.74 0.69 96
20260506225938 6 0 0.0 0.0 0.00 0.74 0.69 96
20260506225438 6 0 0.0 4.8 0.00 0.74 0.69 96
20260506224938 6 0 0.0 4.8 0.00 0.84 0.69 96
20260506224439 6 0 0.0 4.8 0.00 0.84 0.69 96
20260506223939 6 0 0.0 1.6 0.00 0.99 0.69 96
20260506223438 6 0 0.0 6.4 0.00 1.02 0.69 95
20260506222938 6 0 0.0 9.7 0.00 1.02 0.69 95
20260506222438 6 341 3.2 9.7 0.00 1.02 0.69 95
20260506221938 6 340 1.6 9.7 0.00 1.02 0.69 96
20260506221439 6 335 3.2 9.7 0.00 1.04 0.69 96
20260506220939 6 334 3.2 11.3 0.00 1.04 0.69 96
20260506220438 6 334 3.2 11.3 0.00 1.04 0.69 96
20260506215938 6 335 3.2 8.0 0.00 1.04 0.69 96
20260506215438 6 339 1.6 12.9 0.00 1.04 0.69 96
20260506214938 6 329 1.6 12.9 0.00 1.04 0.69 96
20260506214439 6 341 4.8 12.9 0.00 1.04 0.69 96
20260506213939 6 346 8.0 14.5 0.00 1.04 0.69 97
20260506213438 6 340 9.7 14.5 0.00 1.04 0.69 96
20260506212938 6 343 8.0 14.5 0.00 1.04 0.69 96
20260506212438 6 337 8.0 14.5 0.00 1.04 0.69 97
20260506211938 6 336 8.0 12.9 0.00 1.04 0.69 97
20260506211439 6 326 6.4 19.3 0.00 1.04 0.69 97
20260506210939 6 340 8.0 19.3 0.00 1.04 0.69 98
20260506210438 6 341 9.7 19.3 0.00 1.04 0.69 98
20260506205938 6 337 8.0 19.3 0.00 1.04 0.69 98
20260506205438 6 329 6.4 19.3 0.00 1.04 0.69 98
20260506204938 6 332 8.0 20.9 0.00 1.04 0.69 98
20260506204439 6 344 8.0 20.9 0.00 1.04 0.69 98
20260506203938 6 336 11.3 16.1 0.00 1.04 0.69 98
20260506203438 6 344 9.7 16.1 0.00 1.04 0.69 98
20260506202938 6 334 8.0 16.1 0.00 1.04 0.69 98
20260506202438 6 340 9.7 17.7 0.00 1.04 0.69 98
20260506201939 6 336 8.0 19.3 0.00 1.04 0.69 98
20260506201439 6 337 9.7 22.5 0.00 1.04 0.69 98
20260506200938 6 339 12.9 22.5 0.00 1.04 0.69 98
20260506200438 6 342 12.9 22.5 0.00 1.04 0.69 98
20260506195938 6 358 9.7 17.7 0.00 1.04 0.69 98
20260506195438 6 337 9.7 19.3 0.03 1.04 0.69 98
20260506194938 6 335 8.0 20.9 0.03 1.04 0.69 98
20260506194438 6 341 12.9 20.9 0.03 1.04 0.69 98
20260506193938 6 332 8.0 19.3 0.05 1.04 0.69 98
20260506193438 6 332 8.0 19.3 0.05 1.04 0.69 98
20260506192938 6 340 6.4 16.1 0.05 1.04 0.69 98
20260506192438 6 330 8.0 14.5 0.05 1.04 0.69 98
20260506191938 6 332 6.4 14.5 0.05 1.07 0.69 98
20260506191438 6 340 8.0 16.1 0.05 1.07 0.69 98
20260506190938 6 332 6.4 16.1 0.05 1.07 0.69 98
20260506190438 6 329 4.8 16.1 0.05 1.07 0.69 98
20260506185938 6 321 3.2 16.1 0.05 1.07 0.69 97
20260506185438 6 325 4.8 17.7 0.03 1.04 0.66 97
20260506184938 6 319 8.0 17.7 0.05 1.04 0.66 97
20260506184438 6 338 8.0 20.9 0.05 1.04 0.66 97
20260506183938 6 341 9.7 20.9 0.03 1.02 0.64 97
20260506183438 6 340 11.3 20.9 0.03 1.02 0.64 97
20260506182938 6 336 11.3 19.3 0.03 1.02 0.64 97
20260506182439 6 338 8.0 19.3 0.03 1.02 0.64 97
20260506181938 6 341 9.7 17.7 0.03 1.02 0.64 97
20260506181438 7 337 9.7 17.7 0.03 1.14 0.64 97
20260506180938 6 336 6.4 17.7 0.03 1.19 0.64 97
20260506180438 7 338 8.0 14.5 0.03 1.19 0.64 97
20260506175938 7 337 4.8 14.5 0.05 1.19 0.64 98
20260506175437 7 335 9.7 17.7 0.05 1.19 0.64 98
20260506174938 6 334 8.0 17.7 0.03 1.17 0.61 97
20260506174438 6 340 6.4 12.9 0.03 1.17 0.61 98
20260506173938 6 343 8.0 19.3 0.03 1.17 0.61 97
20260506173438 6 333 6.4 19.3 0.03 1.17 0.61 97
20260506172938 6 346 8.0 14.5 0.03 1.17 0.61 98
20260506172438 6 342 6.4 16.1 0.03 1.17 0.61 98
20260506171938 6 351 9.7 16.1 0.03 1.17 0.61 98
20260506171438 6 336 4.8 14.5 0.03 1.17 0.61 98
20260506170938 6 338 8.0 12.9 0.03 1.17 0.61 98
20260506170438 6 337 4.8 14.5 0.03 1.17 0.61 98
20260506165938 6 348 6.4 14.5 0.00 1.14 0.58 98
20260506165437 6 342 6.4 16.1 0.00 1.14 0.58 97
20260506164938 6 339 11.3 16.1 0.00 1.14 0.58 98
20260506164438 6 339 4.8 14.5 0.00 1.14 0.58 98
20260506163938 6 348 6.4 14.5 0.03 1.14 0.58 98
20260506163438 6 340 8.0 12.9 0.03 1.14 0.58 98
20260506162938 6 348 4.8 16.1 0.03 1.14 0.58 98
20260506162437 6 342 9.7 16.1 0.03 1.14 0.58 98
20260506161938 6 345 8.0 14.5 0.05 1.14 0.58 98
20260506161438 6 349 6.4 12.9 0.05 1.14 0.58 98
20260506160938 6 340 8.0 12.9 0.08 1.14 0.58 98
20260506160438 6 342 6.4 12.9 0.08 1.14 0.58 98
20260506155938 6 339 8.0 12.9 0.08 1.14 0.58 98
20260506155437 6 336 3.2 8.0 0.10 1.14 0.58 98
20260506154938 6 330 4.8 12.9 0.10 1.14 0.58 98
20260506154439 6 336 6.4 12.9 0.10 1.14 0.58 98
20260506153938 6 332 4.8 14.5 0.08 1.12 0.56 98
20260506153438 6 342 8.0 14.5 0.08 1.12 0.56 98
20260506152937 6 336 3.2 11.3 0.10 1.12 0.56 98
20260506152437 6 0 0.0 11.3 0.10 1.12 0.56 98
20260506151938 6 337 3.2 8.0 0.08 1.09 0.53 98
20260506151438 6 351 4.8 9.7 0.08 1.09 0.53 98
20260506150938 6 339 4.8 9.7 0.08 1.07 0.51 98
20260506150437 5 335 4.8 8.0 0.08 1.07 0.51 98
20260506145937 5 336 3.2 8.0 0.08 1.07 0.51 98
20260506145438 5 0 0.0 6.4 0.05 1.04 0.48 98
20260506144938 5 0 0.0 9.7 0.08 1.04 0.48 98
20260506144438 5 349 4.8 12.9 0.08 1.04 0.48 98
20260506143937 5 345 4.8 12.9 0.08 1.04 0.48 98
20260506143437 5 338 3.2 12.9 0.08 1.04 0.48 98
20260506142938 5 347 1.6 17.7 0.05 1.02 0.46 98
20260506142438 5 335 9.7 17.7 0.08 1.02 0.46 98
20260506141938 5 336 6.4 11.3 0.08 1.02 0.46 98
20260506141437 5 337 3.2 11.3 0.10 1.02 0.46 98
20260506140937 5 334 4.8 11.3 0.08 0.99 0.43 98
20260506140438 5 335 3.2 11.3 0.10 0.99 0.43 98
20260506135938 5 333 3.2 14.5 0.10 0.99 0.43 98
20260506135438 5 321 4.8 14.5 0.13 0.99 0.43 98
20260506134938 5 333 8.0 12.9 0.13 0.97 0.41 98
20260506134437 5 334 4.8 12.9 0.15 0.97 0.41 98
20260506133938 5 338 6.4 12.9 0.18 0.97 0.41 98
20260506133438 5 344 4.8 11.3 0.20 0.97 0.41 98
20260506132938 6 335 4.8 11.3 0.23 0.97 0.41 98
20260506131937 6 338 4.8 12.9 0.25 0.94 0.38 98
20260506131438 6 320 3.2 9.7 0.23 0.91 0.36 98
20260506130938 6 333 3.2 8.0 0.25 0.91 0.36 98
20260506130438 6 323 3.2 8.0 0.25 0.89 0.33 98
20260506125937 6 318 3.2 8.0 0.25 0.89 0.33 98
20260506125437 6 333 1.6 8.0 0.25 0.86 0.30 98
20260506124937 6 319 1.6 8.0 0.25 0.84 0.28 98
20260506124438 6 0 0.0 6.4 0.25 0.81 0.25 98
20260506123938 6 0 0.0 9.7 0.23 0.79 0.23 98
20260506123438 6 327 3.2 9.7 0.20 0.76 0.20 98
20260506122937 6 0 0.0 9.7 0.18 0.74 0.18 98
20260506122437 6 340 1.6 9.7 0.15 0.71 0.15 98
20260506121938 6 325 3.2 11.3 0.13 0.69 0.13 98
20260506121438 6 329 3.2 11.3 0.13 0.69 0.13 97
20260506120937 6 327 4.8 14.5 0.10 0.66 0.10 97
20260506120437 6 338 6.4 14.5 0.08 0.64 0.08 97
20260506115937 6 334 4.8 14.5 0.08 0.64 0.08 97
20260506115438 6 337 8.0 14.5 0.05 0.61 0.05 97
20260506114938 6 337 4.8 14.5 0.03 0.58 0.03 97
20260506113938 7 343 8.0 12.9 0.00 0.56 0.00 98
20260506113437 -17 0.0 0.0 0.00 0.56 0.00
20260506112938 -17 0.0 0.0 0.00 0.56 0.00
20260506112438 -17 0.0 0.0 0.00 0.56 0.00
20260506111437 -17 0.0 0.0 0.00 0.56 0.00
20260506110937 -17 0.0 0.0 0.00 0.56 0.00
20260506110437 -17 0.0 0.0 0.00 0.56 0.00
20260506105938 -17 0.0 0.0 0.00 0.56 0.00
20260506105438 -17 0.0 0.0 0.00 0.56 0.00
20260506104937 -17 0.0 0.0 0.00 0.56 0.00
20260506104437 -17 0.0 0.0 0.00 0.56 0.00
20260506103937 -17 0.0 0.0 0.00 0.56 0.00
20260506103438 -17 0.0 0.0 0.00 0.56 0.00
20260506102938 -17 0.0 0.0 0.00 0.56 0.00
20260506102437 -17 0.0 0.0 0.00 0.56 0.00
20260506101937 -17 0.0 0.0 0.00 0.56 0.00
20260506101437 -17 0.0 0.0 0.00 0.56 0.00
20260506100937 -17 0.0 0.0 0.00 0.56 0.00
20260506100438 -17 0.0 0.0 0.00 0.56 0.00
20260506095938 -17 0.0 0.0 0.00 0.56 0.00
20260506095437 -17 0.0 0.0 0.00 0.56 0.00
20260506094938 -17 0.0 0.0 0.00 0.56 0.00
20260506094437 -17 0.0 0.0 0.00 0.56 0.00
20260506093438 -17 0.0 0.0 0.00 0.56 0.00
20260506092937 -17 0.0 0.0 0.00 0.56 0.00
20260506092437 -17 0.0 0.0 0.00 0.56 0.00
20260506091937 -17 0.0 0.0 0.00 0.56 0.00
20260506091437 -17 0.0 0.0 0.00 0.56 0.00
20260506090938 -17 0.0 0.0 0.00 0.56 0.00
20260506090437 -17 0.0 0.0 0.00 0.56 0.00
20260506085937 -17 0.0 0.0 0.00 0.56 0.00
20260506085437 -17 0.0 0.0 0.00 0.56 0.00
20260506084937 -17 0.0 0.0 0.00 0.56 0.00
20260506084438 -17 0.0 0.0 0.00 0.56 0.00
20260506083938 -17 0.0 0.0 0.00 0.56 0.00
20260506083437 -17 0.0 0.0 0.00 0.56 0.00
20260506082937 -17 0.0 0.0 0.00 0.56 0.00
20260506082437 -17 0.0 0.0 0.00 0.56 0.00
20260506081938 -17 0.0 0.0 0.00 0.56 0.00
20260506081438 -17 0.0 0.0 0.00 0.56 0.00
20260506080937 -17 0.0 0.0 0.00 0.56 0.00
20260506080437 -17 0.0 0.0 0.00 0.56 0.00
20260506073437 -17 0.0 0.0 0.00 0.56 0.00
20260506072937 -17 0.0 0.0 0.00 0.56 0.00
20260506072438 -17 0.0 0.0 0.00 0.56 0.00